DW8749 Weather Reports


Display with metric or nautical units.
time (UTC)temp
F
wind
direction
speed
MPH
gust
MPH
rain 1hr
in
rain 24hr
in
rain mn
in
humidity
%
barometer
mb
20260902223011 101 215 10.0 21.0 0.00 0.00 0.00 27 1010.3
20260902222508 101 202 7.0 27.0 0.00 0.00 0.00 27 1010.3
20260902222009 101 161 9.0 27.0 0.00 0.00 0.00 26 1010.3
20260902221522 101 202 14.0 27.0 0.00 0.00 0.00 27 1010.3
20260902221011 101 188 9.0 21.0 0.00 0.00 0.00 27 1010.2
20260902220514 101 198 9.0 19.0 0.00 0.00 0.00 27 1010.3
20260902220006 101 186 6.0 17.0 0.00 0.00 0.00 28 1010.2
20260902215503 100 140 10.0 16.0 0.00 0.00 0.00 27 1010.1
20260902215003 100 155 8.0 22.0 0.00 0.00 0.00 27 1010.3
20260902214508 101 146 7.0 22.0 0.00 0.00 0.00 27 1010.4
20260902214008 101 188 7.0 20.0 0.00 0.00 0.00 27 1010.3
20260902213508 101 148 8.0 20.0 0.00 0.00 0.00 28 1010.5
20260902213023 101 172 10.0 20.0 0.00 0.00 0.00 28 1010.6
20260902212509 102 188 11.0 20.0 0.00 0.00 0.00 27 1010.7
20260902212013 102 172 9.0 19.0 0.00 0.00 0.00 27 1010.7
20260902211520 102 175 9.0 18.0 0.00 0.00 0.00 26 1010.8
20260902211015 102 188 5.0 18.0 0.00 0.00 0.00 26 1010.7
20260902210503 102 221 7.0 18.0 0.00 0.00 0.00 27 1010.9
20260902210013 102 160 10.0 20.0 0.00 0.00 0.00 27 1010.9
20260902205502 102 209 11.0 20.0 0.00 0.00 0.00 26 1011.0
20260902205006 102 196 12.0 19.0 0.00 0.00 0.00 26 1011.2
20260902204507 102 199 9.0 19.0 0.00 0.00 0.00 27 1011.2
20260902204010 102 219 8.0 22.0 0.00 0.00 0.00 27 1011.3
20260902203513 102 207 11.0 21.0 0.00 0.00 0.00 27 1011.4
20260902203022 102 196 10.0 20.0 0.00 0.00 0.00 27 1011.4
20260902202513 102 204 11.0 23.0 0.00 0.00 0.00 27 1011.5
20260902202014 102 194 12.0 23.0 0.00 0.00 0.00 26 1011.6
20260902201526 102 244 10.0 23.0 0.00 0.00 0.00 28 1011.7
20260902201017 102 250 9.0 23.0 0.00 0.00 0.00 27 1011.8
20260902200503 102 205 7.0 20.0 0.00 0.00 0.00 27 1011.8
20260902200008 102 208 9.0 20.0 0.00 0.00 0.00 28 1012.0
20260902195504 101 181 7.0 15.0 0.00 0.00 0.00 28 1012.0
20260902195008 101 194 6.0 25.0 0.00 0.00 0.00 28 1012.0
20260902194511 101 232 9.0 25.0 0.00 0.00 0.00 28 1012.0
20260902194011 101 189 9.0 21.0 0.00 0.00 0.00 28 1012.0
20260902193510 101 205 10.0 18.0 0.00 0.00 0.00 29 1012.2
20260902193020 101 205 7.0 17.0 0.00 0.00 0.00 29 1012.3
20260902192511 101 246 7.0 19.0 0.00 0.00 0.00 29 1012.4
20260902192016 101 202 8.0 20.0 0.00 0.00 0.00 29 1012.5
20260902191543 101 217 11.0 20.0 0.00 0.00 0.00 29 1012.6
20260902191005 100 227 9.0 20.0 0.00 0.00 0.00 31 1012.6
20260902190505 100 190 9.0 19.0 0.00 0.00 0.00 30 1012.7
20260902190008 100 360 10.0 24.0 0.00 0.00 0.00 31 1012.8
20260902185506 100 190 12.0 24.0 0.00 0.00 0.00 30 1012.9
20260902185009 100 163 8.0 15.0 0.00 0.00 0.00 32 1013.0
20260902184519 100 203 9.0 19.0 0.00 0.00 0.00 30 1013.0
20260902184010 99 254 10.0 22.0 0.00 0.00 0.00 32 1013.1
20260902183514 99 219 11.0 22.0 0.00 0.00 0.00 32 1013.2
20260902183025 99 263 6.0 22.0 0.00 0.00 0.00 32 1013.3
20260902182513 99 360 10.0 20.0 0.00 0.00 0.00 33 1013.4
20260902182018 98 194 10.0 19.0 0.00 0.00 0.00 33 1013.4
20260902181504 98 168 11.0 19.0 0.00 0.00 0.00 33 1013.5
20260902181007 98 206 10.0 19.0 0.00 0.00 0.00 33 1013.5
20260902180506 98 163 10.0 19.0 0.00 0.00 0.00 34 1013.5
20260902180011 98 179 7.0 19.0 0.00 0.00 0.00 34 1013.6
20260902175510 98 195 8.0 19.0 0.00 0.00 0.00 35 1013.6
20260902175010 97 241 9.0 18.0 0.00 0.00 0.00 34 1013.7
20260902174520 97 209 10.0 18.0 0.00 0.00 0.00 35 1013.8
20260902174012 97 166 9.0 23.0 0.00 0.00 0.00 37 1013.8
20260902173517 97 196 13.0 23.0 0.00 0.00 0.00 36 1013.9
20260902173026 96 210 7.0 19.0 0.00 0.00 0.00 36 1013.9
20260902172517 96 202 8.0 18.0 0.00 0.00 0.00 37 1014.0
20260902172017 96 215 9.0 23.0 0.00 0.00 0.00 37 1014.1
20260902171506 95 215 8.0 23.0 0.00 0.00 0.00 37 1014.2
20260902171009 95 179 11.0 23.0 0.00 0.00 0.00 38 1014.1
20260902170507 95 180 7.0 20.0 0.00 0.00 0.00 38 1014.2
20260902170015 95 193 9.0 17.0 0.00 0.00 0.00 38 1014.2
20260902165512 94 164 9.0 21.0 0.00 0.00 0.00 39 1014.2
20260902165017 94 360 9.0 21.0 0.00 0.00 0.00 39 1014.3
20260902164525 94 236 8.0 22.0 0.00 0.00 0.00 39 1014.3
20260902164015 94 209 11.0 22.0 0.00 0.00 0.00 39 1014.3
20260902163516 94 360 8.0 20.0 0.00 0.00 0.00 39 1014.3
20260902163029 94 201 10.0 21.0 0.00 0.00 0.00 39 1014.4
20260902162515 93 360 9.0 21.0 0.00 0.00 0.00 40 1014.4
20260902162008 93 360 11.0 21.0 0.00 0.00 0.00 39 1014.3
20260902161511 93 192 11.0 21.0 0.00 0.00 0.00 39 1014.3
20260902161010 93 209 9.0 18.0 0.00 0.00 0.00 39 1014.4
20260902160512 93 360 8.0 18.0 0.00 0.00 0.00 40 1014.4
20260902160016 92 360 11.0 17.0 0.00 0.00 0.00 40 1014.3
20260902155519 92 195 8.0 19.0 0.00 0.00 0.00 41 1014.4
20260902155015 92 200 10.0 22.0 0.00 0.00 0.00 42 1014.2
20260902154528 91 209 9.0 22.0 0.00 0.00 0.00 42 1014.4
20260902154013 91 217 10.0 23.0 0.00 0.00 0.00 42 1014.3
20260902153518 90 214 9.0 23.0 0.00 0.00 0.00 43 1014.4
20260902153031 90 360 8.0 22.0 0.00 0.00 0.00 44 1014.4
20260902152518 89 190 11.0 22.0 0.00 0.00 0.00 43 1014.5
20260902152006 89 223 8.0 30.0 0.00 0.00 0.00 46 1014.4
20260902151512 88 217 11.0 30.0 0.00 0.00 0.00 45 1014.5
20260902151010 88 202 12.0 24.0 0.00 0.00 0.00 47 1014.5
20260902150510 87 213 11.0 24.0 0.00 0.00 0.00 47 1014.5
20260902150022 86 199 11.0 20.0 0.00 0.00 0.00 49 1014.5
20260902145513 85 212 11.0 18.0 0.00 0.00 0.00 50 1014.5
20260902145014 84 245 8.0 16.0 0.00 0.00 0.00 51 1014.5
20260902144508 84 194 8.0 16.0 0.00 0.00 0.00 52 1014.5
20260902144003 84 209 8.0 25.0 0.00 0.00 0.00 51 1014.5
20260902143503 84 360 9.0 25.0 0.00 0.00 0.00 52 1014.5
20260902143013 84 210 11.0 21.0 0.00 0.00 0.00 51 1014.5
20260902142508 83 360 9.0 17.0 0.00 0.00 0.00 53 1014.5
20260902142008 82 360 9.0 17.0 0.00 0.00 0.00 53 1014.5
20260902141515 81 170 8.0 14.0 0.00 0.00 0.00 55 1014.6
20260902141012 81 192 6.0 16.0 0.00 0.00 0.00 55 1014.7
20260902140514 81 161 8.0 17.0 0.00 0.00 0.00 55 1014.7
20260902140027 81 360 9.0 17.0 0.00 0.00 0.00 55 1014.7
20260902135514 80 161 8.0 17.0 0.00 0.00 0.00 55 1014.7
20260902135003 80 181 8.0 15.0 0.00 0.00 0.00 55 1014.6
20260902134505 80 168 6.0 15.0 0.00 0.00 0.00 56 1014.7
20260902134006 79 360 6.0 17.0 0.00 0.00 0.00 57 1014.6
20260902133507 79 360 7.0 13.0 0.00 0.00 0.00 57 1014.6
20260902133012 78 159 3.0 12.0 0.00 0.00 0.00 57 1014.6
20260902132507 78 195 5.0 12.0 0.00 0.00 0.00 57 1014.7
20260902132011 78 360 5.0 12.0 0.00 0.00 0.00 57 1014.7
20260902131517 78 229 5.0 15.0 0.00 0.00 0.00 57 1014.7
20260902131014 78 195 4.0 15.0 0.00 0.00 0.00 57 1014.7
20260902130513 78 205 5.0 12.0 0.00 0.00 0.00 57 1014.7
20260902130033 78 165 7.0 11.0 0.00 0.00 0.00 56 1014.6
20260902125520 78 221 5.0 15.0 0.00 0.00 0.00 56 1014.6
20260902125003 77 195 7.0 15.0 0.00 0.00 0.00 57 1014.6
20260902124510 77 196 6.0 15.0 0.00 0.00 0.00 56 1014.5
20260902124007 77 172 6.0 15.0 0.00 0.00 0.00 56 1014.4
20260902123508 77 202 6.0 14.0 0.00 0.00 0.00 56 1014.4
20260902123022 77 192 7.0 19.0 0.00 0.00 0.00 56 1014.4
20260902122512 77 360 7.0 19.0 0.00 0.00 0.00 56 1014.4
20260902122012 77 360 7.0 19.0 0.00 0.00 0.00 56 1014.4
20260902121528 77 171 8.0 15.0 0.00 0.00 0.00 56 1014.3
20260902121014 77 178 7.0 18.0 0.00 0.00 0.00 56 1014.3
20260902120517 77 360 7.0 18.0 0.00 0.00 0.00 55 1014.2
20260902120031 77 160 7.0 15.0 0.00 0.00 0.00 55 1014.3
20260902115505 77 194 8.0 15.0 0.00 0.00 0.00 55 1014.2
20260902115007 77 360 7.0 13.0 0.00 0.00 0.00 55 1014.1
20260902114517 77 169 6.0 14.0 0.00 0.00 0.00 55 1014.2
20260902114010 77 202 8.0 16.0 0.00 0.00 0.00 55 1014.1
20260902113511 77 199 6.0 16.0 0.00 0.00 0.00 55 1014.1
20260902113020 77 209 8.0 14.0 0.00 0.00 0.00 55 1014.0
20260902112514 77 360 7.0 13.0 0.00 0.00 0.00 54 1014.1
20260902112015 76 179 7.0 13.0 0.00 0.00 0.00 54 1014.0
20260902111535 76 360 5.0 12.0 0.00 0.00 0.00 54 1014.0
20260902111017 76 161 7.0 14.0 0.00 0.00 0.00 54 1014.1
20260902110518 77 197 7.0 15.0 0.00 0.00 0.00 54 1014.0
20260902110016 77 192 8.0 15.0 0.00 0.00 0.00 53 1014.1
20260902105507 77 189 6.0 12.0 0.00 0.00 0.00 53 1014.1
20260902105009 77 138 7.0 12.0 0.00 0.00 0.00 53 1014.1
20260902104518 77 192 6.0 14.0 0.00 0.00 0.00 53 1014.2
20260902104008 77 360 7.0 17.0 0.00 0.00 0.00 52 1014.1
20260902103511 77 180 8.0 17.0 0.00 0.00 0.00 52 1014.2
20260902103024 77 360 7.0 16.0 0.00 0.00 0.00 52 1014.2
20260902102512 77 195 5.0 16.0 0.00 0.00 0.00 52 1014.2
20260902102016 77 164 6.0 14.0 0.00 0.00 0.00 52 1014.2
20260902101532 77 360 7.0 14.0 0.00 0.00 0.00 52 1014.1
20260902101021 77 360 5.0 15.0 0.00 0.00 0.00 51 1014.2
20260902100516 77 169 5.0 15.0 0.00 0.00 0.00 51 1014.1
20260902100012 77 177 5.0 15.0 0.00 0.00 0.00 51 1014.1
20260902095508 77 360 8.0 15.0 0.00 0.00 0.00 50 1014.1
20260902095011 77 360 7.0 12.0 0.00 0.00 0.00 50 1014.1
20260902094521 77 360 6.0 12.0 0.00 0.00 0.00 50 1014.0
20260902094013 77 360 5.0 13.0 0.00 0.00 0.00 50 1014.0
20260902093518 77 205 7.0 13.0 0.00 0.00 0.00 50 1014.1
20260902093030 77 360 6.0 13.0 0.00 0.00 0.00 50 1014.1
20260902092514 77 360 5.0 11.0 0.00 0.00 0.00 50 1014.1
20260902092021 77 221 5.0 11.0 0.00 0.00 0.00 50 1014.0
20260902091533 77 204 5.0 12.0 0.00 0.00 0.00 50 1014.0
20260902091017 77 360 6.0 12.0 0.00 0.00 0.00 50 1014.1
20260902090507 77 360 5.0 11.0 0.00 0.00 0.00 50 1014.1
20260902090018 77 207 5.0 10.0 0.00 0.00 0.00 50 1014.1
20260902085510 77 192 4.0 10.0 0.00 0.00 0.00 50 1014.0
20260902085012 77 360 7.0 10.0 0.00 0.00 0.00 50 1014.1
20260902084523 77 172 5.0 11.0 0.00 0.00 0.00 50 1014.1
20260902084016 77 360 5.0 11.0 0.00 0.00 0.00 50 1014.1
20260902083515 77 192 4.0 8.0 0.00 0.00 0.00 49 1014.0
20260902083029 78 180 4.0 9.0 0.00 0.00 0.00 49 1014.1
20260902082515 78 192 4.0 9.0 0.00 0.00 0.00 48 1014.0
20260902082018 78 360 4.0 8.0 0.00 0.00 0.00 48 1013.9
20260902081531 78 360 4.0 8.0 0.00 0.00 0.00 48 1014.0
20260902081017 78 151 4.0 8.0 0.00 0.00 0.00 48 1013.9
20260902080511 78 189 4.0 11.0 0.00 0.00 0.00 47 1013.9
20260902080019 78 154 4.0 11.0 0.00 0.00 0.00 47 1014.0
20260902075511 78 138 4.0 10.0 0.00 0.00 0.00 47 1013.9
20260902075014 79 360 5.0 10.0 0.00 0.00 0.00 47 1013.8
20260902074527 79 178 6.0 11.0 0.00 0.00 0.00 47 1014.0
20260902074016 79 360 5.0 11.0 0.00 0.00 0.00 47 1013.8
20260902073517 79 360 5.0 9.0 0.00 0.00 0.00 47 1013.8
20260902073033 79 196 4.0 8.0 0.00 0.00 0.00 47 1013.8
20260902072515 79 127 4.0 8.0 0.00 0.00 0.00 46 1013.8
20260902072017 80 360 4.0 9.0 0.00 0.00 0.00 46 1013.7
20260902071532 80 209 4.0 9.0 0.00 0.00 0.00 45 1013.7
20260902071011 80 200 4.0 11.0 0.00 0.00 0.00 45 1013.8
20260902070512 80 360 5.0 11.0 0.00 0.00 0.00 44 1013.7
20260902070021 81 154 4.0 11.0 0.00 0.00 0.00 44 1013.8
20260902065513 81 157 5.0 12.0 0.00 0.00 0.00 44 1013.8
20260902065016 81 360 5.0 13.0 0.00 0.00 0.00 44 1013.8
20260902064528 81 360 5.0 13.0 0.00 0.00 0.00 43 1013.8
20260902064017 82 181 6.0 14.0 0.00 0.00 0.00 43 1013.8
20260902063518 82 206 7.0 14.0 0.00 0.00 0.00 43 1013.8
20260902063041 82 360 7.0 13.0 0.00 0.00 0.00 43 1013.9
20260902062520 82 229 6.0 11.0 0.00 0.00 0.00 42 1013.9
20260902062019 82 178 5.0 11.0 0.00 0.00 0.00 42 1013.9
20260902061522 82 201 5.0 10.0 0.00 0.00 0.00 42 1013.8
20260902061013 83 189 5.0 12.0 0.00 0.00 0.00 42 1013.8
20260902060511 83 172 6.0 13.0 0.00 0.00 0.00 41 1013.8
20260902060025 83 360 7.0 13.0 0.00 0.00 0.00 41 1013.7
20260902055514 83 360 6.0 13.0 0.00 0.00 0.00 41 1013.7
20260902055019 83 360 6.0 13.0 0.00 0.00 0.00 41 1013.7
20260902054506 83 360 5.0 13.0 0.00 0.00 0.00 41 1013.7
20260902054005 83 198 7.0 11.0 0.00 0.00 0.00 41 1013.6
20260902053506 83 159 6.0 12.0 0.00 0.00 0.00 41 1013.7
20260902053014 84 360 5.0 12.0 0.00 0.00 0.00 41 1013.7
20260902052510 84 360 5.0 11.0 0.00 0.00 0.00 40 1013.7
20260902052009 84 360 5.0 12.0 0.00 0.00 0.00 40 1013.7
20260902051523 84 194 6.0 12.0 0.00 0.00 0.00 40 1013.7
20260902051015 84 360 6.0 12.0 0.00 0.00 0.00 40 1013.7
20260902050516 84 167 6.0 14.0 0.00 0.00 0.00 40 1013.7
20260902050012 85 155 7.0 14.0 0.00 0.00 0.00 40 1013.6
20260902045505 85 162 7.0 13.0 0.00 0.00 0.00 40 1013.6
20260902045005 85 163 7.0 13.0 0.00 0.00 0.00 39 1013.5
20260902044510 85 204 8.0 13.0 0.00 0.00 0.00 39 1013.6
20260902044006 85 360 6.0 13.0 0.00 0.00 0.00 39 1013.5
20260902043508 85 182 6.0 12.0 0.00 0.00 0.00 39 1013.6
20260902043029 85 360 6.0 13.0 0.00 0.00 0.00 39 1013.6
20260902042514 86 360 5.0 14.0 0.00 0.00 0.00 39 1013.6
20260902042014 86 200 6.0 14.0 0.00 0.00 0.00 38 1013.6
20260902041524 86 360 7.0 14.0 0.00 0.00 0.00 38 1013.5
20260902041016 86 142 7.0 13.0 0.00 0.00 0.00 38 1013.5
20260902040503 86 192 7.0 13.0 0.00 0.00 0.00 38 1013.6
20260902040006 87 165 6.0 13.0 0.00 0.00 0.00 38 1013.6
20260902035505 87 360 5.0 14.0 0.00 0.00 0.00 37 1013.5
20260902035007 87 360 7.0 14.0 0.00 0.00 0.00 37 1013.6
20260902034517 87 195 7.0 14.0 0.00 0.00 0.00 37 1013.6
20260902034010 87 360 7.0 12.0 0.00 0.00 0.00 37 1013.4
20260902033510 87 360 6.0 14.0 0.00 0.00 0.00 37 1013.4
20260902033018 87 182 7.0 14.0 0.00 0.00 0.00 37 1013.3
20260902032512 87 143 5.0 14.0 0.00 0.00 0.00 37 1013.2
20260902032016 88 152 8.0 14.0 0.00 0.00 0.00 37 1013.3
20260902031529 88 161 7.0 14.0 0.00 0.00 0.00 37 1013.3
20260902031019 88 360 7.0 14.0 0.00 0.00 0.00 37 1013.3
20260902030503 88 197 8.0 15.0 0.00 0.00 0.00 37 1013.1
20260902030008 88 360 7.0 15.0 0.00 0.00 0.00 37 1013.1
20260902025504 88 136 7.0 15.0 0.00 0.00 0.00 37 1013.1
20260902025008 88 192 6.0 17.0 0.00 0.00 0.00 37 1013.0
20260902024515 88 360 6.0 17.0 0.00 0.00 0.00 37 1013.0
20260902024009 88 360 7.0 14.0 0.00 0.00 0.00 37 1012.9
20260902023512 88 173 8.0 14.0 0.00 0.00 0.00 38 1012.8
20260902023023 88 360 9.0 13.0 0.00 0.00 0.00 38 1012.7
20260902022514 88 192 6.0 12.0 0.00 0.00 0.00 38 1012.7
20260902022016 89 360 7.0 12.0 0.00 0.00 0.00 38 1012.6
20260902021530 89 163 7.0 11.0 0.00 0.00 0.00 38 1012.5
20260902021009 89 360 6.0 12.0 0.00 0.00 0.00 38 1012.4
20260902020504 89 140 5.0 12.0 0.00 0.00 0.00 38 1012.4
20260902020009 89 161 7.0 11.0 0.00 0.00 0.00 38 1012.4
20260902015508 90 142 7.0 11.0 0.00 0.00 0.00 38 1012.3
20260902015008 90 160 6.0 10.0 0.00 0.00 0.00 38 1012.3
20260902014516 90 171 4.0 8.0 0.00 0.00 0.00 37 1012.2
20260902014014 90 165 5.0 8.0 0.00 0.00 0.00 37 1012.2
20260902013513 90 153 4.0 8.0 0.00 0.00 0.00 37 1012.2
20260902013027 91 181 5.0 8.0 0.00 0.00 0.00 37 1012.2
20260902012515 91 167 3.0 8.0 0.00 0.00 0.00 37 1012.2
20260902012017 91 132 5.0 7.0 0.00 0.00 0.00 37 1012.1
20260902011505 91 148 3.0 7.0 0.00 0.00 0.00 37 1012.0
20260902011010 92 178 3.0 7.0 0.00 0.00 0.00 37 1012.0
20260902010509 92 163 3.0 7.0 0.00 0.00 0.00 36 1012.0
20260902010012 92 157 4.0 10.0 0.00 0.00 0.00 35 1012.1
20260902005510 93 360 4.0 10.0 0.00 0.00 0.00 35 1012.1
20260902005010 93 173 3.0 8.0 0.00 0.00 0.00 34 1012.2
20260902004523 94 178 4.0 10.0 0.00 0.00 0.00 34 1012.1
20260902004016 94 169 4.0 9.0 0.00 0.00 0.00 33 1012.2
20260902003515 94 190 5.0 11.0 0.00 0.00 0.00 33 1012.2
20260902003029 95 179 4.0 11.0 0.00 0.00 0.00 33 1012.1
20260902002513 95 157 5.0 10.0 0.00 0.00 0.00 33 1012.0
20260902002022 95 124 6.0 10.0 0.00 0.00 0.00 32 1012.0
20260902001508 96 178 4.0 10.0 0.00 0.00 0.00 32 1011.9
20260902001007 96 190 5.0 10.0 0.00 0.00 0.00 31 1012.0
20260902000512 96 181 5.0 13.0 0.00 0.00 0.00 31 1012.1
20260902000018 97 360 6.0 14.0 0.00 0.00 0.00 30 1012.1
20260901235511 97 205 6.0 14.0 0.00 0.00 0.00 30 1012.2
20260901235017 97 196 6.0 13.0 0.00 0.00 0.00 31 1012.2
20260901234526 97 160 8.0 13.0 0.00 0.00 0.00 30 1012.2
20260901234013 97 198 6.0 10.0 0.00 0.00 0.00 31 1012.1
20260901233514 97 196 7.0 11.0 0.00 0.00 0.00 30 1012.1
20260901233031 97 360 6.0 11.0 0.00 0.00 0.00 31 1012.2
20260901232516 97 360 5.0 10.0 0.00 0.00 0.00 31 1012.2
20260901232008 97 186 5.0 12.0 0.00 0.00 0.00 31 1012.2
20260901231515 97 360 5.0 12.0 0.00 0.00 0.00 30 1012.3
20260901231007 97 237 5.0 11.0 0.00 0.00 0.00 30 1012.4
20260901230511 97 238 5.0 11.0 0.00 0.00 0.00 30 1012.5
20260901230019 98 199 4.0 11.0 0.00 0.00 0.00 30 1012.5
20260901225513 98 360 4.0 10.0 0.00 0.00 0.00 29 1012.5
20260901225015 98 169 5.0 11.0 0.00 0.00 0.00 29 1012.5
20260901224534 98 209 6.0 16.0 0.00 0.00 0.00 29 1012.5
20260901224016 98 161 6.0 16.0 0.00 0.00 0.00 29 1012.5
20260901223514 98 213 7.0 16.0 0.00 0.00 0.00 29 1012.5